Location: Newark
(44.6303°N, 123.0961°W)
Time: 21:02:50
(UTC+00:00)

Envisat - Pass Details

Date: 29 January 2020
Orbit: 764 x 766 km, 98.1° (Epoch: 25 February)

Event Time Altitude Azimuth Distance (km) Brightness Sun altitude
Rises 03:17:35 0° 209° (SSW) 3,221 6.7 -21.8°
Reaches altitude 10° 03:20:41 10° 229° (SW) 2,300 6.2 -22.3°
Maximum altitude 03:23:57 17° 270° (W) 1,860 5.9 -22.9°
Drops below altitude 10° 03:27:14 10° 311° (NW) 2,311 6.1 -23.5°
Sets 03:30:23 0° 331° (NNW) 3,243 6.6 -24.0°
